COSMOS 2251 DEB, 35465

Orbit data source: Space-Track

COSMOS 2251 DEB, 35465 is space debris in LEO originally from a launch on Wed, 16 Jun 1993 UTC launched from the Plesetsk Missile And Space Complex (PKMTR). The debris from Iridium 33, an American commercial communications satellite, has been tracked extensively since its accidental collision with the defunct Russian satellite Cosmos 2251 in 2009. This event, occurring at high speed in low Earth orbit (LEO), generated thousands of pieces of space debris, significantly increasing the risk of further collisions. The Iridium 33 debris cloud has impacted space traffic management and orbital debris mitigation strategies, making it a subject of ongoing study in space situational awareness.

Loading next visibility...
Identifier
35465, 1993-036ALK
Orbit
LEO
Country
Flag of CISCIS
Related business
Manufacturer
Unknown
Mission
Spacecraft
Bus & Motor
Unknown
Mass
Unknown
Launch date (UTC)
1993-06-16 (33 years ago)
Launch vehicle
Unknown
Launch site
Plesetsk Missile And Space Complex (PKMTR)
Object type
Payload
Rocket body
Debris
Shape & HBR
Unknown shape, 0.1 m
Radar Cross Section
Small (<0.1 m²)

Expand to show TLE details & history
Last TLE update: 2 days ago

TLE from 2 days ago
0 COSMOS 2251 DEB
1 35465U 93036ALK 26206.54527244  .00001036  00000-0  29785-3 0  9997
2 35465  73.9995 137.5258 0064931 245.4990 113.9388 14.44902059904884
Epoch: 2026-07-25T13:05Z
TLE epoch observation values (Epoch: 2026-07-25T13:05:11.538Z)
Latitude
-0.00006°
Longitude
-2.02831°
Altitude
763.98 km
Speed
7.462 km/s
True Right ascension
09h 10m 06s
True Declination
0° 00' 00"
Sunlit
Object was in daylight at epoch
Visualization orbit readout
Latitude
Unknown
Longitude
Unknown
Altitude
Unknown
Speed
Unknown
Apparent Right ascension
Unknown
Apparent Declination
Unknown
Sunlit
N/A
Visualization observer readout
Local Sidereal Time
21:45:16
Azimuth
Unknown
Elevation
Unknown
Doppler factor
Unknown
Orbital elements
Apogee altitude
786.184 km
Perigee altitude
693.746 km
Semi-major axis
7,118.102 km
Eccentricity
0.00649
Inclination
73.9995°
RAAN
137.5258°
Arg. of periapsis
245.499°
True anomaly
114.6166°
Mean anomaly
113.9388°
Eccentric anomaly
114.27793°
Mean motion
3.61407 °/min
Orbital period
99.61 mins
BSTAR
0.00029785
Loading maneuver chart data...
Computing Atmospheric mass density...

Documentation

Showing up to 5 results
|